Precipitable_Water
1.37 1.39 1.39 1.40 1.39 1.42 1.41 1.39 1.39 1.35 1.34 1.34 1.31 1.27 1.24 1.24 1.26 1.25 1.22 1.21 1.23 1.24 1.23 1.20 1.17 1.12 1.05 0.97 0.91 0.86 0.83 0.82 0.79 0.75 0.71 0.67 0.62 0.57 0.50 0.46 0.44 0.41
1.37 1.39 1.40 1.40 1.40 1.42 1.42 1.41 1.37 1.33 1.32 1.33 1.31 1.27 1.26 1.25 1.26 1.25 1.22 1.23 1.26 1.25 1.21 1.15 1.10 1.05 0.99 0.92 0.87 0.81 0.79 0.76 0.70 0.71 0.65 0.61 0.57 0.52 0.46 0.44 0.41 0.41
1.35 1.34 1.34 1.34 1.35 1.37 1.38 1.39 1.36 1.34 1.33 1.33 1.30 1.27 1.24 1.25 1.25 1.26 1.27 1.28 1.28 1.24 1.19 1.11 1.02 1.01 0.94 0.87 0.83 0.78 0.75 0.71 0.67 0.67 0.62 0.57 0.52 0.47 0.44 0.42 0.40 0.38
1.32 1.32 1.34 1.35 1.37 1.37 1.39 1.36 1.34 1.34 1.35 1.31 1.26 1.25 1.24 1.25 1.26 1.27 1.29 1.28 1.23 1.21 1.16 1.05 0.99 0.95 0.87 0.83 0.79 0.75 0.71 0.69 0.68 0.63 0.58 0.54 0.50 0.46 0.43 0.41 0.39 0.37
1.30 1.32 1.36 1.37 1.39 1.40 1.38 1.33 1.31 1.33 1.33 1.30 1.26 1.25 1.24 1.26 1.27 1.28 1.28 1.24 1.20 1.16 1.12 1.03 0.95 0.86 0.82 0.79 0.75 0.71 0.71 0.69 0.66 0.60 0.53 0.49 0.48 0.45 0.43 0.40 0.36 0.35
1.32 1.35 1.36 1.36 1.38 1.37 1.34 1.31 1.33 1.34 1.32 1.27 1.23 1.25 1.28 1.30 1.30 1.28 1.26 1.21 1.17 1.12 1.06 0.99 0.87 0.81 0.79 0.75 0.72 0.70 0.70 0.66 0.63 0.57 0.52 0.48 0.47 0.46 0.43 0.39 0.36 0.35
1.29 1.32 1.33 1.37 1.38 1.38 1.34 1.35 1.36 1.35 1.30 1.25 1.26 1.27 1.30 1.29 1.27 1.26 1.23 1.20 1.13 1.04 0.92 0.84 0.81 0.78 0.76 0.74 0.72 0.71 0.70 0.66 0.61 0.57 0.51 0.49 0.47 0.45 0.44 0.40 0.37 0.36
1.30 1.33 1.35 1.37 1.36 1.35 1.33 1.35 1.35 1.30 1.27 1.26 1.26 1.29 1.30 1.28 1.25 1.23 1.20 1.13 1.00 0.87 0.83 0.81 0.79 0.77 0.75 0.74 0.72 0.71 0.69 0.67 0.61 0.56 0.52 0.49 0.48 0.44 0.43 0.40 0.39 0.37
1.30 1.31 1.33 1.34 1.32 1.32 1.32 1.34 1.32 1.27 1.27 1.26 1.27 1.28 1.28 1.26 1.23 1.20 1.12 0.99 0.86 0.83 0.82 0.80 0.77 0.75 0.74 0.73 0.74 0.72 0.68 0.65 0.61 0.56 0.52 0.48 0.46 0.44 0.42 0.42 0.40 0.40
1.28 1.30 1.30 1.30 1.29 1.31 1.32 1.32 1.28 1.25 1.27 1.27 1.27 1.27 1.24 1.23 1.21 1.13 1.01 0.88 0.82 0.82 0.81 0.77 0.74 0.73 0.74 0.76 0.75 0.72 0.68 0.63 0.60 0.56 0.52 0.49 0.46 0.45 0.44 0.44 0.43 0.41
1.26 1.28 1.27 1.28 1.29 1.31 1.31 1.28 1.24 1.24 1.26 1.25 1.24 1.23 1.22 1.21 1.15 1.06 0.92 0.83 0.81 0.81 0.78 0.75 0.74 0.75 0.77 0.77 0.75 0.72 0.66 0.62 0.58 0.55 0.52 0.50 0.48 0.47 0.47 0.47 0.46 0.44
1.24 1.26 1.26 1.27 1.28 1.31 1.30 1.25 1.22 1.24 1.24 1.24 1.23 1.21 1.20 1.17 1.09 0.97 0.86 0.81 0.80 0.79 0.77 0.76 0.77 0.78 0.78 0.76 0.73 0.70 0.66 0.62 0.58 0.55 0.54 0.53 0.52 0.51 0.49 0.48 0.46 0.45
1.22 1.24 1.26 1.26 1.28 1.30 1.29 1.23 1.20 1.23 1.23 1.21 1.21 1.20 1.16 1.11 1.01 0.91 0.85 0.81 0.79 0.77 0.76 0.78 0.80 0.79 0.77 0.75 0.73 0.69 0.65 0.61 0.59 0.58 0.57 0.56 0.54 0.50 0.48 0.47 0.46 0.45
1.24 1.26 1.26 1.27 1.29 1.30 1.26 1.21 1.19 1.21 1.21 1.20 1.18 1.15 1.11 1.06 0.97 0.89 0.85 0.81 0.79 0.77 0.78 0.81 0.80 0.78 0.76 0.75 0.72 0.69 0.66 0.63 0.61 0.59 0.58 0.55 0.52 0.49 0.48 0.47 0.48 0.48
1.25 1.26 1.28 1.28 1.28 1.27 1.22 1.17 1.17 1.20 1.19 1.16 1.14 1.12 1.09 1.03 0.95 0.89 0.84 0.79 0.77 0.77 0.79 0.82 0.79 0.77 0.75 0.73 0.71 0.69 0.66 0.63 0.60 0.58 0.55 0.52 0.51 0.50 0.50 0.49 0.49 0.47
1.24 1.25 1.25 1.26 1.24 1.22 1.18 1.15 1.16 1.17 1.15 1.12 1.10 1.08 1.02 0.96 0.91 0.88 0.82 0.78 0.77 0.78 0.80 0.80 0.78 0.76 0.74 0.73 0.71 0.67 0.65 0.63 0.60 0.58 0.55 0.52 0.51 0.50 0.49 0.49 0.47 0.46
1.22 1.22 1.23 1.21 1.22 1.21 1.17 1.13 1.14 1.15 1.13 1.10 1.07 1.02 0.97 0.93 0.89 0.83 0.79 0.78 0.78 0.79 0.80 0.77 0.75 0.74 0.73 0.72 0.71 0.69 0.66 0.62 0.59 0.57 0.56 0.54 0.52 0.49 0.46 0.46 0.47 0.48
1.21 1.21 1.20 1.20 1.21 1.18 1.14 1.12 1.13 1.13 1.11 1.08 1.03 0.98 0.96 0.93 0.86 0.82 0.79 0.78 0.79 0.81 0.79 0.76 0.74 0.73 0.72 0.72 0.72 0.70 0.67 0.63 0.60 0.59 0.57 0.55 0.53 0.50 0.47 0.46 0.46 0.47
1.21 1.20 1.19 1.19 1.19 1.17 1.13 1.11 1.10 1.10 1.09 1.05 1.00 0.99 0.97 0.91 0.87 0.83 0.80 0.81 0.81 0.81 0.79 0.77 0.75 0.75 0.74 0.75 0.74 0.71 0.68 0.65 0.63 0.61 0.59 0.55 0.53 0.50 0.47 0.46 0.47 0.42
1.21 1.20 1.18 1.18 1.19 1.15 1.11 1.08 1.07 1.07 1.08 1.08 1.04 0.99 0.94 0.91 0.88 0.84 0.83 0.82 0.83 0.83 0.80 0.78 0.77 0.79 0.79 0.78 0.76 0.73 0.70 0.67 0.65 0.63 0.60 0.57 0.54 0.51 0.48 0.47 0.46 0.40
1.21 1.20 1.18 1.18 1.17 1.14 1.09 1.06 1.05 1.06 1.06 1.07 1.05 0.99 0.94 0.90 0.88 0.86 0.86 0.86 0.86 0.85 0.82 0.80 0.81 0.82 0.82 0.80 0.78 0.75 0.72 0.70 0.67 0.65 0.62 0.60 0.57 0.53 0.49 0.48 0.45 0.40
1.21 1.20 1.18 1.17 1.15 1.12 1.07 1.03 1.03 1.04 1.04 1.06 1.05 1.03 1.00 0.97 0.93 0.90 0.88 0.88 0.88 0.87 0.85 0.83 0.84 0.84 0.83 0.82 0.80 0.78 0.75 0.72 0.68 0.65 0.62 0.60 0.57 0.54 0.52 0.51 0.45 0.39
1.23 1.20 1.18 1.17 1.16 1.10 1.05 1.02 1.02 1.03 1.05 1.07 1.03 1.01 0.98 0.94 0.91 0.91 0.91 0.91 0.90 0.88 0.86 0.84 0.84 0.85 0.84 0.83 0.81 0.79 0.76 0.73 0.69 0.65 0.62 0.61 0.59 0.59 0.58 0.54 0.49 0.47
1.24 1.22 1.20 1.19 1.15 1.08 1.04 1.03 1.04 1.06 1.06 1.07 1.03 1.00 0.98 0.97 0.97 0.94 0.94 0.94 0.91 0.88 0.87 0.85 0.84 0.86 0.85 0.84 0.82 0.80 0.77 0.74 0.71 0.67 0.65 0.64 0.64 0.64 0.61 0.56 0.52 0.51
1.26 1.25 1.23 1.21 1.16 1.10 1.07 1.04 1.04 1.04 1.06 1.08 1.07 1.05 1.03 1.02 0.99 0.97 0.96 0.94 0.92 0.90 0.90 0.88 0.87 0.87 0.87 0.85 0.83 0.82 0.80 0.77 0.70 0.67 0.64 0.66 0.66 0.62 0.60 0.55 0.53 0.53
1.27 1.25 1.25 1.22 1.17 1.12 1.10 1.07 1.07 1.05 1.05 1.05 1.05 1.05 1.03 1.01 0.99 0.97 0.95 0.93 0.93 0.92 0.91 0.90 0.87 0.88 0.89 0.89 0.86 0.84 0.82 0.79 0.73 0.66 0.61 0.60 0.62 0.60 0.57 0.56 0.54 0.53
Wind_Speed
20 20 19 19 18 18 17 17 16 16 15 15 15 15 15 15 14 14 14 13 13 12 12 11 11 11 10 10 10 10 9 8 8 8 8 8 8 7 7 7 7 7
20 20 19 19 18 18 17 17 16 16 15 15 15 15 15 15 14 14 13 12 12 12 12 11 11 11 11 10 10 10 9 8 8 8 8 8 7 7 7 6 6 7
20 20 19 19 18 17 17 17 16 15 15 15 15 15 15 14 14 14 13 12 11 12 12 11 11 11 11 10 10 9 9 8 8 8 8 7 7 7 7 7 7 7
20 20 19 19 18 17 17 16 16 16 15 15 15 15 14 14 14 13 12 11 11 11 12 12 12 12 11 10 10 9 8 8 8 8 7 7 7 7 7 7 7 8
20 19 19 18 18 17 17 16 16 16 15 15 15 14 14 14 13 12 11 11 11 12 13 13 13 12 11 10 9 9 8 8 8 8 7 7 7 7 7 8 8 8
20 19 19 18 18 17 17 17 16 16 15 15 15 14 14 13 12 11 11 11 11 12 12 13 13 12 11 10 9 9 9 8 8 8 7 7 7 7 8 8 8 9
20 19 19 18 18 17 17 17 16 16 15 15 15 14 13 13 12 11 11 11 11 12 12 12 12 11 11 10 9 9 9 8 8 8 8 8 8 8 8 9 9 9
20 19 19 18 18 18 17 16 16 15 15 15 14 13 13 12 12 11 11 11 12 12 12 12 11 11 10 10 10 9 9 9 9 9 8 8 9 9 9 9 10 10
20 19 19 18 18 18 17 16 15 15 15 14 14 13 13 12 12 12 11 12 12 12 12 12 11 11 10 10 10 10 10 10 10 9 9 9 9 10 10 10 10 11
20 20 19 18 18 18 17 16 15 15 15 14 14 13 13 13 12 12 12 12 12 12 12 12 11 11 11 10 10 10 10 10 10 10 10 10 10 10 11 11 11 11
21 20 19 19 18 18 17 15 15 15 15 14 14 14 13 13 13 13 13 13 13 13 12 12 12 11 11 11 11 11 11 11 10 10 10 10 11 11 11 12 12 12
21 20 20 19 18 17 16 15 15 15 15 15 14 14 14 14 14 14 14 14 13 13 12 12 12 11 11 11 11 11 11 11 11 11 10 11 11 11 12 12 13 13
21 20 20 19 18 18 16 16 15 15 15 15 15 15 15 15 16 15 14 14 13 13 13 12 12 12 12 12 12 12 11 11 11 11 11 11 12 12 12 13 13 14
21 20 20 19 18 18 17 16 16 16 16 15 15 15 16 16 16 15 14 14 13 13 13 12 12 12 12 12 12 12 12 12 11 11 11 12 12 12 13 13 14 14
21 20 20 19 19 18 17 16 16 16 16 16 16 16 16 16 16 15 15 14 14 13 13 13 13 13 13 13 13 13 12 12 12 12 12 12 13 13 13 14 14 14
21 20 19 19 19 18 17 17 17 17 16 16 16 17 17 17 16 15 15 14 14 14 14 13 13 13 14 14 13 13 13 13 13 13 13 13 13 14 14 14 14 14
21 20 20 19 19 19 18 18 17 17 17 17 17 17 17 17 16 15 15 15 14 14 14 14 14 14 14 14 14 14 14 14 14 14 14 14 14 14 14 14 14 15
21 21 20 20 20 19 18 18 18 18 18 18 18 18 17 17 16 16 15 15 15 15 15 15 15 15 15 15 15 15 15 15 15 15 15 15 15 15 15 15 15 15
21 21 20 20 20 19 19 19 18 18 18 19 19 18 18 17 16 16 16 16 16 15 16 16 16 16 16 16 16 16 15 15 16 16 16 16 16 16 16 16 16 16
22 21 20 20 20 20 20 20 19 19 19 19 19 19 18 18 17 17 17 17 16 16 16 17 16 16 16 16 16 16 16 16 16 16 16 16 16 16 16 17 17 16
22 21 21 21 20 20 20 20 20 20 20 20 20 19 19 18 18 18 17 17 17 17 17 17 17 17 17 17 17 17 17 17 17 17 17 17 17 17 18 18 18 17
23 22 21 21 21 21 21 20 20 20 20 20 20 19 19 19 18 18 18 18 18 18 18 18 17 18 18 18 18 18 18 18 18 18 18 18 18 19 18 18 18 18
23 22 22 21 21 21 21 21 21 21 21 21 20 19 19 19 19 19 19 18 18 18 18 18 18 19 19 19 19 19 19 19 19 19 19 19 19 19 19 19 19 19
23 22 22 22 21 22 22 21 21 21 21 21 20 20 20 20 19 19 19 19 19 19 19 19 20 20 20 20 21 20 20 20 20 20 20 20 20 20 20 20 20 20
23 23 23 22 22 22 22 22 21 21 21 20 20 20 20 20 20 20 19 20 20 20 20 21 21 21 21 21 21 21 21 21 21 21 21 21 21 21 21 21 21 21
24 23 23 22 22 21 22 22 21 21 21 20 20 20 20 20 20 20 20 20 21 21 21 21 21 21 22 22 22 22 22 22 22 22 22 22 22 22 22 22 22 22
Wind_Direction
225 227 229 231 233 235 235 236 238 239 242 246 249 251 253 256 257 260 261 260 259 253 243 238 235 230 227 223 218 219 225 227 232 242 247 248 248 246 246 249 257 266
224 227 229 231 232 234 235 237 239 241 244 247 249 251 253 255 256 258 259 257 255 247 235 229 228 224 220 218 218 221 226 230 238 244 244 243 243 243 245 251 260 269
224 226 228 230 232 233 234 237 240 243 245 247 248 250 252 255 255 256 254 251 249 239 226 221 219 218 217 216 219 223 228 233 238 239 238 238 241 243 247 255 263 271
224 227 229 230 232 233 234 237 239 242 245 246 247 249 251 253 253 252 248 243 240 229 219 216 215 215 217 218 220 224 227 231 233 233 234 237 242 245 251 258 264 271
224 227 229 230 232 233 235 237 239 242 244 244 245 248 249 249 248 246 240 235 231 225 219 217 216 216 218 220 220 221 224 227 229 232 234 237 243 249 256 261 266 273
223 226 228 230 231 233 235 237 240 243 243 241 243 245 245 244 240 235 231 228 226 222 217 214 214 215 217 216 217 220 223 226 228 231 235 239 246 252 259 264 268 274
222 225 227 230 231 232 234 237 241 242 240 239 240 240 239 236 231 227 225 222 218 214 210 209 210 211 212 213 216 220 223 227 230 232 237 243 250 256 262 266 270 275
221 224 227 229 230 231 233 236 239 238 237 236 235 234 232 229 225 222 219 213 209 207 206 207 208 208 210 215 218 221 224 228 232 235 240 247 253 259 264 268 273 277
221 223 226 227 228 229 232 234 236 234 233 232 229 228 227 226 223 218 211 206 205 205 205 206 207 209 214 219 222 225 227 230 235 240 245 251 256 262 267 271 275 279
220 222 224 225 226 228 230 231 232 231 229 227 225 224 223 222 218 211 204 203 204 204 205 207 209 213 218 223 227 230 231 234 238 244 250 255 261 265 269 272 276 280
220 222 223 224 224 226 227 228 229 227 225 225 223 220 219 218 213 206 202 203 204 205 208 211 214 218 222 226 231 233 235 238 242 248 254 259 264 268 271 273 277 280
220 222 222 222 223 224 225 226 226 224 223 223 221 218 216 214 209 204 203 204 206 208 212 216 219 223 227 230 233 235 236 240 246 252 256 261 266 270 272 274 278 280
218 221 222 222 222 223 224 225 224 222 221 221 219 216 214 211 206 204 205 207 210 213 216 220 224 227 230 233 235 237 239 244 249 254 258 264 268 272 274 276 279 282
217 220 221 221 221 222 224 224 222 220 219 220 219 216 213 209 206 206 208 211 214 217 220 224 227 231 233 235 238 241 244 247 252 255 260 265 270 273 276 278 281 283
217 220 220 221 221 222 224 224 220 218 218 219 218 216 213 210 209 210 212 215 218 220 224 228 232 235 238 239 241 244 247 250 254 258 262 266 271 274 276 279 282 284
216 219 220 221 221 223 224 222 218 216 217 218 217 214 212 210 211 213 216 219 222 225 229 233 237 240 240 241 244 247 250 253 256 259 263 267 271 273 275 279 282 284
215 218 220 221 222 224 224 220 216 216 216 217 215 213 212 213 215 217 220 223 227 230 234 238 240 242 242 243 246 248 252 255 258 261 264 267 270 272 275 278 282 284
216 218 220 221 222 224 221 217 216 216 216 215 215 213 214 216 218 220 224 228 232 235 239 241 243 244 244 245 247 249 252 257 260 263 265 267 269 272 275 278 282 283
216 219 220 221 223 223 219 216 216 217 216 216 215 215 217 219 221 224 227 231 235 239 242 244 246 246 245 247 249 251 254 258 262 264 265 266 269 272 275 278 281 282
217 219 220 222 223 221 217 215 217 217 217 217 217 218 220 222 224 227 230 234 238 242 244 246 248 247 247 248 251 253 256 260 263 264 265 266 269 272 275 278 281 281
218 219 221 222 222 218 215 216 218 218 218 219 220 221 223 225 228 230 233 237 241 244 246 248 249 248 248 251 253 255 258 261 263 264 265 267 269 272 275 278 280 279
218 219 221 221 220 216 215 217 219 219 220 221 222 224 226 228 231 233 236 239 242 245 247 249 251 250 250 253 255 257 260 262 264 264 265 268 269 271 274 278 279 279
218 220 221 220 218 216 216 219 220 221 222 223 224 226 228 231 233 235 238 240 243 246 249 250 252 252 252 254 256 258 261 263 264 265 266 268 269 270 273 277 278 277
219 219 218 218 218 217 218 220 221 222 224 225 227 228 230 233 235 237 239 242 244 248 251 252 253 254 254 256 257 259 262 265 266 267 268 269 269 271 274 277 277 275
219 218 217 218 219 219 220 222 223 224 225 227 229 232 233 235 237 239 241 244 247 250 252 253 255 256 257 257 258 260 263 266 268 268 269 270 270 272 274 275 275 274
217 216 217 219 221 221 221 222 224 224 226 228 231 234 236 237 239 241 243 246 250 252 253 255 256 258 258 258 259 261 263 265 267 268 268 269 271 272 272 272 273 273